Location: Newark
(52.8300°N, 8.0000°E)
Time: 17:17:57
(UTC+00:00)

STARLINK-1113 - Pass Details

Date: 29 January 2020
Orbit: 554 x 556 km, 53.0° (Epoch: 26 February)

Event Time Altitude Azimuth Distance (km) Brightness Sun altitude
Rises 17:59:34 0° 286° (WNW) 2,737 8.4 -17.0°
Reaches altitude 10° 18:01:53 10° 279° (W) 1,840 7.5 -17.3°
Maximum altitude 18:05:49 40° 210° (SSW) 825 4.8 -17.9°
Enters shadow 18:08:34 17° 148° (SSE) 1,420 5.5 -18.3°
